Regional Weather Roundup
Issued by NWS

Home | Current Version | Previous Version | Text Only | Print | Product List | Glossary On
Versions: 1 2 3 4 5 6 7 8 9 10 11 12 13 14 15 16 17 18 19 20 21 22 23 24 25 26 27 28 29 30 31 32 33 34 35 36 37 38 39 40 41 42 43 44 45 46 47 48 49 50
000
ASUS43 KLSX 122257
RWRMO

WEATHER SUMMARY FOR MISSOURI
NATIONAL WEATHER SERVICE SPRINGFIELD MO
500 PM CST TUE DEC 12 2017

NOTE: "FAIR" INDICATES FEW OR NO CLOUDS BELOW 12,000 FEET WITH NO
       SIGNIFICANT WEATHER AND/OR OBSTRUCTIONS TO VISIBILITY.
       CURRENT SKY AND/OR WEATHER CONDITIONS ARE NOT AVAILABLE FOR
       CHILLICOTHE AND FARMINGTON.

MOZ001>031-035>038-043-044-053-054-130000-
...NORTHERN AND WESTERN MISSOURI...

CITY           SKY/WX    TMP DP  RH WIND       PRES   REMARKS
KANSAS CTY INT MOCLDY    35  22  58 S5        30.13F
LEE`S SUMMIT   CLEAR     37  20  50 W6        30.16F
ST JOSEPH      PTCLDY    35  24  64 S6        30.13F
CHILLICOTHE      N/A     34  17  50 W3        30.15F

$$
MOZ066>068-077>081-088>096-101>105-130000-
...SOUTHWEST MISSOURI...

CITY           SKY/WX    TMP DP  RH WIND       PRES   REMARKS
SPRINGFIELD    CLEAR     36   7  29 W7        30.17F
JOPLIN         PTCLDY    37  16  42 W6        30.21F
BRANSON        CLEAR     39   9  28 W7        30.18F

$$
MOZ032>034-039>042-045>050-055>058-069>072-130000-
...CENTRAL MISSOURI...

CITY           SKY/WX    TMP DP  RH WIND       PRES   REMARKS
COLUMBIA       NOT AVBL
JEFFERSON CITY PTCLDY    34   4  28 W7        30.17F WCI  28
ROLLA          PTCLDY    31   3  30 W5        30.15F WCI  26
SEDALIA        PTCLDY    36   7  29 W6        30.17
WARRENSBURG    CLEAR     34  16  47 SW6       30.16F WCI  29

$$
MOZ051-052-059>065-130000-
...EAST CENTRAL MISSOURI...

CITY           SKY/WX    TMP DP  RH WIND       PRES   REMARKS
ST LOUIS INTL  MOCLDY    32   1  26 W8        30.14F WCI  25

$$
MOZ072>076-082>087-097>100-106>115-130000-
...SOUTH CENTRAL AND SOUTHEAST MISSOURI...

CITY           SKY/WX    TMP DP  RH WIND       PRES   REMARKS
CAPE GIRARDEAU CLEAR     35   6  29 NW7       30.15S WCI  29
POPLAR BLUFF   CLEAR     38  10  31 NW7       30.16R
WEST PLAINS    CLEAR     36   6  28 W7        30.15F

$$



USA.gov is the U.S. government's official web portal to all federal, state and local government web resources and services.